Regional Weather Roundup
Issued by NWS

Home | Current Version | Previous Version | Graphics & Text | Print | Product List | Glossary On
Versions: 1 2 3 4 5 6 7 8 9 10 11 12 13 14 15 16 17 18 19 20 21 22 23 24 25 26 27 28 29 30 31 32 33 34 35 36 37 38 39 40 41 42 43 44 45 46 47 48 49 50
000
ASUS43 KMKX 271400
RWRWI

WISCONSIN REGIONAL WEATHER ROUNDUP
NATIONAL WEATHER SERVICE MILWAUKEE/SULLIVAN WI
900 AM CDT FRI MAY 27 2016

NOTE: "FAIR" INDICATES FEW OR NO CLOUDS BELOW 12,000 FEET WITH NO
SIGNIFICANT WEATHER AND/OR OBSTRUCTIONS TO VISIBILITY.

WIZ001-002-006>008-014>016-023>028-271500-
NORTHWEST WISCONSIN

CITY           SKY/WX    TMP DP  RH WIND       PRES   REMARKS
SUPERIOR ARPT  CLOUDY    46  46 100 CALM      29.89R
ASHLAND        CLOUDY    52  52 100 N3        29.90R
HAYWARD        CLOUDY    60  55  83 S5        29.89R
SIREN          LGT RAIN  63  57  82 SE3       29.84R
CUMBERLAND     LGT RAIN  59  55  88 SE7       29.88R
RICE LAKE      LGT RAIN  62  58  86 CALM      29.90R
CHETEK         DRIZZLE   62  58  89 SE3       29.89R
LADYSMITH      CLOUDY    61  57  88 CALM      29.90R
EAU CLAIRE     NOT AVBL
MENOMONIE      DRIZZLE   63  61  94 E5        29.88S
NEW RICHMOND   LGT RAIN  62  60  92 SE9G17    29.86R
OSCEOLA        LGT RAIN  64  63  97 E8        29.86R
$$

WIZ003>005-009-010-017-018-271500-
NORTH CENTRAL WISCONSIN

CITY           SKY/WX    TMP DP  RH WIND       PRES   REMARKS
MANITOWISH WTR NOT AVBL
ARBOR VITAE    CLOUDY    71  58  62 E3        29.90R
WOODRUFF       CLOUDY    71  58  62 E3        29.90R
RHINELANDER    CLOUDY    68  56  65 SE5       29.92R
EAGLE RIVER      N/A     68  55  62 E6        29.90S
LAND O LAKES   SUNNY     66  60  80 CALM      29.91S
PHILLIPS       CLOUDY    60  57  91 CALM      29.89R
TOMAHAWK       CLOUDY    64  59  83 CALM      29.91R
MEDFORD        CLOUDY    62  58  86 CALM      29.90R
MERRILL        CLOUDY   N/A N/A N/A CALM      29.91R
$$

WIZ029-030-035-036-043>047-271500-
CENTRAL WISCONSIN

CITY           SKY/WX    TMP DP  RH WIND       PRES   REMARKS
WAUSAU         CLOUDY    66  59  78 CALM      29.87S
MOSINEE        CLOUDY    64  61  88 NW7       29.89S
MARSHFIELD     CLOUDY    66  58  75 NE3       29.86F
STEVENS POINT  DRIZZLE   65  59  82 SW8       29.86F
WAUPACA        CLOUDY    70  64  81 CALM      29.87R
WAUTOMA        CLOUDY    66  62  87 E3        29.86
WISC RAPIDS    CLOUDY    66  60  81 E6        29.86F
CAMP DOUGLAS   NOT AVBL
$$

WIZ011>013-019>022-031-037>040-048>050-271500-
NORTHEAST WISCONSIN

CITY           SKY/WX    TMP DP  RH WIND       PRES   REMARKS
ANTIGO         CLOUDY    70  57  63 E6        29.91R
SHAWANO        CLOUDY    69  62  78 CALM      29.88S
OCONTO         CLOUDY    68  68 100 NE3       29.87R
STURGEON BAY   NOT AVBL
GREEN BAY      CLOUDY    74  62  66 CALM      29.87S
MANITOWOC      NOT AVBL
APPLETON       PTSUNNY   72  57  60 E7        29.85F
CLINTONVILLE   CLOUDY    68  59  73 CALM      29.87F
OSHKOSH        CLOUDY    70  60  70 NE5       29.85S
$$

WIZ032>034-041-042-053>061-271500-
SOUTHWEST WISCONSIN

CITY           SKY/WX    TMP DP  RH WIND       PRES   REMARKS
LA CROSSE      CLOUDY    67  63  87 CALM      29.82S
SPARTA         CLOUDY    63  63  97 CALM      29.84F
VIROQUA        CLOUDY    63  63 100 E10       29.83F
BOSCOBEL       CLOUDY    68  63  84 NE3       29.84S
PRAIRIE DU CHI CLOUDY    65  64  96 E5        29.82S
PLATTEVILLE    CLOUDY    67  65  96 SE9       29.85F
$$

WIZ056-057-062-063-064-067-068-271500-
SOUTH CENTRAL WISCONSIN

CITY           SKY/WX    TMP DP  RH WIND       PRES   REMARKS
REEDSBURG      PTSUNNY   64  64 100 E3        29.85F
BARABOO/DELLS  CLOUDY    63  61  93 NE6       29.86R
LONE ROCK      NOT AVBL
MINERAL POINT  CLOUDY    70  64  83 SE9       29.86F
MADISON        CLOUDY    68  61  78 CALM      29.85F
MIDDLETON      CLOUDY    68  63  82 CALM      29.86F
WATERTOWN      CLOUDY    69  68  98 SW3       29.86R
MONROE         CLOUDY    68  63  83 SE5       29.88S
JANESVILLE     CLOUDY    73  64  73 SW9         N/A
$$

WIZ051-052-058>065-066-070>072-271500-
SOUTHEAST WISCONSIN

CITY           SKY/WX    TMP DP  RH WIND       PRES   REMARKS
MILWAUKEE      CLOUDY    73  67  81 SW7       29.88R
WAUKESHA       SUNNY     70  66  88 SW3       29.89R FOG
MILWAUKEE/TIMM SUNNY     72  64  78 S3        29.88R HAZE
RACINE         CLOUDY    71  64  78 S9        29.90R
BURLINGTON     CLOUDY    71  67  88 S8        29.89R
KENOSHA        CLOUDY    74  67  78 S12       29.89R
FOND DU LAC    CLOUDY    72  63  73 CALM      29.87R
SHEBOYGAN      CLOUDY    63  55  75 SE7       29.89R
WEST BEND      CLOUDY    68  63  83 CALM      29.88R
JUNEAU         CLOUDY    67  64  90 CALM      29.88R
$$

LSZ147-162-271500-
LAKE SUPERIOR

STATION/POSITION TIME  TEMP    WIND        PRES    WAVE
                       AIR SEA DIR/SP/G            HT/PER
                 (UTC) (F)     (DEG/KT/KT) (MB)    (FT/S)
W MID LAKE BUOY  1250   39 38  110/  4/  6 1012.6F   1
DEVILS ISLAND    1200   45     360/  4/  5 1012.2S
SAXON HARBOR     1300   50     300/  2/  2 1011.2F
$$

LMZ867-665-643>646-271500-
LAKE MICHIGAN

STATION/POSITION TIME  TEMP    WIND        PRES    WAVE
                       AIR SEA DIR/SP/G            HT/PER
                 (UTC) (F)     (DEG/KT/KT) (MB)    (FT/S)
CHAMBERS ISLAND  1300   61      30/  3/  5 1012.2
N MID LAKE BUOY  1250   46 45  320/  6/  6 1013.1R   1/ 4
NORTHPORT PIER   1300   53     100/  4/  6 1012.9
SISTER BAY       1305             CALM       N/A
ALGOMA LAKESHORE 1217             CALM       N/A
KEWAUNEE LAKESHO 1300   53      40/  3/  4 1011.6S
SHEBOYGAN LAKESH 1300   52      80/  5/  7 1012.0R
PORT WASHINGTON  1300   58      CALM  /  2 1012.5R
S MID LAKE BUOY  1250   54 50  150/  8/ 10 1012.0R   1/ 3
KENOSHA   LAKESH 1200   59     180/ 13/ 13 1011.5S
$$

TC  - TEMPERATURE IN CELSIUS
VSB - VISIBILITY IN STATUTE MILES
WCI - WIND CHILL INDEX
HX  - HEAT INDEX





USA.gov is the U.S. government's official web portal to all federal, state and local government web resources and services.